| time (UTC) | temp F | wind direction | speed MPH | gust MPH | rain 1hr in | rain 24hr in | rain mn in | humidity % | barometer mb |
| 20260831101617 | 55 | 241 | 12.0 | 20.0 | 0.00 | 1.34 | 0.00 | 77 | 1006.4 |
| 20260831100608 | 55 | 226 | 10.0 | 15.0 | 0.00 | 1.34 | 0.00 | 79 | 1006.7 |
| 20260831095544 | 54 | 231 | 8.0 | 13.0 | 0.00 | 1.34 | 0.00 | 81 | 1006.8 |
| 20260831094559 | 54 | 219 | 9.0 | 13.0 | 0.00 | 1.34 | 0.00 | 82 | 1006.7 |
| 20260831093549 | 55 | 226 | 11.0 | 16.0 | 0.00 | 1.34 | 0.00 | 82 | 1006.8 |
| 20260831092522 | 55 | 204 | 12.0 | 17.0 | 0.00 | 1.34 | 0.00 | 82 | 1006.8 |
| 20260831091514 | 55 | 220 | 10.0 | 16.0 | 0.00 | 1.34 | 0.00 | 84 | 1006.9 |
| 20260831090508 | 55 | 220 | 10.0 | 15.0 | 0.00 | 1.34 | 0.00 | 86 | 1006.9 |
| 20260831085438 | 55 | 207 | 9.0 | 16.0 | 0.00 | 1.34 | 0.00 | 87 | 1006.8 |
| 20260831084409 | 55 | 208 | 9.0 | 16.0 | 0.00 | 1.34 | 0.00 | 88 | 1006.9 |
| 20260831083349 | 55 | 215 | 7.0 | 12.0 | 0.00 | 1.34 | 0.00 | 89 | 1006.9 |
| 20260831082318 | 55 | 193 | 6.0 | 12.0 | 0.00 | 1.34 | 0.00 | 89 | 1007.0 |
| 20260831081331 | 55 | 221 | 6.0 | 12.0 | 0.00 | 1.34 | 0.00 | 88 | 1007.0 |
| 20260831080351 | 56 | 232 | 5.0 | 9.0 | 0.00 | 1.34 | 0.00 | 88 | 1007.0 |
| 20260831075347 | 56 | 190 | 5.0 | 10.0 | 0.00 | 1.34 | 0.00 | 88 | 1006.9 |
| 20260831074313 | 56 | 208 | 6.0 | 12.0 | 0.00 | 1.34 | 0.00 | 88 | 1006.9 |
| 20260831073322 | 56 | 215 | 8.0 | 12.0 | 0.00 | 1.34 | 0.00 | 88 | 1006.9 |
| 20260831072331 | 56 | 209 | 6.0 | 12.0 | 0.00 | 1.34 | 0.00 | 89 | 1006.9 |
| 20260831071307 | 56 | 215 | 6.0 | 11.0 | 0.00 | 1.34 | 0.00 | 90 | 1007.0 |
| 20260831070249 | 56 | 223 | 5.0 | 10.0 | 0.00 | 1.34 | 0.00 | 90 | 1007.1 |
| 20260831065259 | 56 | 200 | 4.0 | 11.0 | 0.00 | 1.34 | 0.00 | 89 | 1007.2 |
| 20260831064237 | 57 | 202 | 6.0 | 11.0 | 0.00 | 1.34 | 0.00 | 88 | 1007.4 |
| 20260831063243 | 57 | 211 | 7.0 | 11.0 | 0.00 | 1.34 | 0.00 | 87 | 1007.4 |
| 20260831062231 | 57 | 208 | 7.0 | 10.0 | 0.00 | 1.34 | 0.00 | 87 | 1007.3 |
| 20260831061224 | 57 | 218 | 6.0 | 10.0 | 0.00 | 1.34 | 0.00 | 88 | 1007.3 |
| 20260831060238 | 57 | 216 | 6.0 | 9.0 | 0.00 | 1.34 | 0.00 | 88 | 1007.3 |
| 20260831055259 | 58 | 236 | 7.0 | 9.0 | 0.00 | 1.34 | 1.34 | 88 | 1007.3 |
| 20260831054237 | 58 | 215 | 7.0 | 11.0 | 0.00 | 1.34 | 1.34 | 87 | 1007.4 |
| 20260831053203 | 59 | 225 | 7.0 | 11.0 | 0.00 | 1.34 | 1.34 | 87 | 1007.4 |
| 20260831052205 | 59 | 218 | 7.0 | 12.0 | 0.00 | 1.34 | 1.34 | 87 | 1007.3 |
| 20260831051146 | 59 | 228 | 8.0 | 12.0 | 0.00 | 1.34 | 1.34 | 87 | 1007.4 |
| 20260831050119 | 59 | 230 | 8.0 | 12.0 | 0.00 | 1.34 | 1.34 | 87 | 1007.5 |
| 20260831045102 | 59 | 237 | 7.0 | 12.0 | 0.00 | 1.34 | 1.34 | 87 | 1007.6 |
| 20260831042914 | 60 | 224 | 7.0 | 11.0 | 0.00 | 1.34 | 1.34 | 86 | 1007.7 |
| 20260831041905 | 60 | 225 | 7.0 | 11.0 | 0.00 | 1.34 | 1.34 | 85 | 1007.8 |
| 20260831035947 | 60 | 225 | 7.0 | 12.0 | 0.00 | 1.34 | 1.34 | 84 | 1008.0 |
| 20260831034917 | 61 | 239 | 8.0 | 12.0 | 0.00 | 1.34 | 1.34 | 84 | 1008.0 |
| 20260831033904 | 60 | 214 | 8.0 | 12.0 | 0.00 | 1.34 | 1.34 | 84 | 1008.1 |
| 20260831032916 | 60 | 228 | 5.0 | 10.0 | 0.00 | 1.34 | 1.34 | 84 | 1008.2 |
| 20260831030744 | 61 | 237 | 5.0 | 7.0 | 0.00 | 1.34 | 1.34 | 82 | 1008.1 |
| 20260831024701 | 62 | 238 | 5.0 | 8.0 | 0.00 | 1.34 | 1.34 | 80 | 1007.9 |
| 20260831023632 | 62 | 233 | 5.0 | 8.0 | 0.00 | 1.34 | 1.34 | 80 | 1007.8 |
| 20260831022611 | 63 | 267 | 5.0 | 8.0 | 0.00 | 1.34 | 1.34 | 78 | 1007.3 |
| 20260831020438 | 64 | 263 | 6.0 | 11.0 | 0.00 | 1.34 | 1.34 | 78 | 1007.6 |
| 20260831015405 | 64 | 251 | 7.0 | 11.0 | 0.00 | 1.34 | 1.34 | 78 | 1007.5 |
| 20260831014341 | 65 | 273 | 5.0 | 9.0 | 0.00 | 1.34 | 1.34 | 77 | 1006.8 |
| 20260831012232 | 66 | 259 | 7.0 | 12.0 | 0.00 | 1.34 | 1.34 | 78 | 1007.0 |
| 20260831011248 | 66 | 269 | 9.0 | 13.0 | 0.00 | 1.34 | 1.34 | 79 | 1006.9 |
| 20260831010239 | 66 | 240 | 7.0 | 13.0 | 0.00 | 1.34 | 1.34 | 81 | 1007.0 |
| 20260831005205 | 66 | 279 | 7.0 | 11.0 | 0.00 | 1.34 | 1.34 | 83 | 1007.5 |
| 20260831004155 | 67 | 240 | 5.0 | 9.0 | 0.00 | 1.34 | 1.34 | 85 | 1007.9 |
| 20260831003201 | 67 | 258 | 7.0 | 11.0 | 0.00 | 1.34 | 1.34 | 85 | 1007.4 |
| 20260831002148 | 67 | 255 | 8.0 | 14.0 | 0.00 | 1.34 | 1.34 | 85 | 1007.4 |
| 20260831001207 | 67 | 268 | 8.0 | 14.0 | 0.00 | 1.34 | 1.34 | 86 | 1007.1 |
| 20260830235032 | 67 | 249 | 4.0 | 6.0 | 0.00 | 1.35 | 1.34 | 89 | 1006.9 |
| 20260830234047 | 67 | 267 | 3.0 | 7.0 | 0.00 | 1.36 | 1.34 | 88 | 1007.2 |
| 20260830231906 | 67 | 285 | 8.0 | 13.0 | 0.03 | 1.35 | 1.33 | 87 | 1007.1 |
| 20260830230912 | 68 | 264 | 7.0 | 11.0 | 0.10 | 1.35 | 1.33 | 88 | 1007.2 |
| 20260830225849 | 69 | 254 | 6.0 | 14.0 | 0.00 | 1.33 | 1.31 | 84 | 1007.3 |
| 20260830224831 | 69 | 292 | 9.0 | 16.0 | 0.00 | 1.33 | 1.31 | 82 | 1006.6 |
| 20260830223816 | 70 | 275 | 11.0 | 21.0 | 0.00 | 1.33 | 1.31 | 81 | 1006.3 |
| 20260830222743 | 70 | 277 | 12.0 | 21.0 | 0.00 | 1.33 | 1.31 | 81 | 1005.7 |
| 20260830220533 | 70 | 331 | 12.0 | 24.0 | 0.00 | 1.33 | 1.31 | 89 | 1005.3 |
| 20260830215541 | 70 | 329 | 14.0 | 24.0 | 0.00 | 1.34 | 1.31 | 90 | 1005.3 |
| 20260830214521 | 69 | 324 | 12.0 | 19.0 | 0.00 | 1.34 | 1.31 | 90 | 1005.4 |
| 20260830213537 | 68 | 342 | 13.0 | 21.0 | 0.00 | 1.34 | 1.31 | 91 | 1005.6 |
| 20260830211357 | 69 | 300 | 14.0 | 23.0 | 0.00 | 1.34 | 1.31 | 90 | 1005.3 |
| 20260830205305 | 68 | 312 | 16.0 | 21.0 | 0.00 | 1.34 | 1.31 | 92 | 1005.2 |
| 20260830204238 | 68 | 288 | 10.0 | 18.0 | 0.00 | 1.33 | 1.30 | 92 | 1006.0 |
| 20260830203215 | 68 | 290 | 3.0 | 11.0 | 0.00 | 1.33 | 1.30 | 95 | 1006.0 |
| 20260830201042 | 65 | 88 | 7.0 | 12.0 | 0.03 | 1.33 | 1.30 | 94 | 1005.8 |
| 20260830200035 | 65 | 136 | 5.0 | 26.0 | 0.11 | 1.33 | 1.30 | 93 | 1005.5 |
| 20260830192808 | 74 | 222 | 5.0 | 14.0 | 2.05 | 0.07 | 0.05 | 85 | 1005.4 |
| 20260830191751 | 74 | 115 | 6.0 | 13.0 | 0.00 | 0.03 | 0.00 | 83 | 1004.6 |
| 20260830190731 | 74 | 124 | 6.0 | 18.0 | 0.00 | 0.03 | 0.00 | 84 | 1005.5 |
| 20260830185713 | 74 | 122 | 8.0 | 18.0 | 0.00 | 0.03 | 0.00 | 84 | 1005.2 |
| 20260830183457 | 75 | 119 | 11.0 | 22.0 | 0.00 | 0.03 | 0.00 | 81 | 1005.5 |
| 20260830182504 | 75 | 125 | 8.0 | 20.0 | 0.00 | 0.03 | 0.00 | 80 | 1005.8 |
| 20260830181514 | 74 | 117 | 9.0 | 16.0 | 0.00 | 0.03 | 0.00 | 81 | 1006.3 |
| 20260830180500 | 75 | 121 | 10.0 | 16.0 | 0.00 | 0.03 | 0.00 | 80 | 1006.4 |
| 20260830175453 | 75 | 148 | 9.0 | 15.0 | 0.00 | 0.03 | 0.00 | 82 | 1006.6 |
| 20260830174420 | 74 | 121 | 10.0 | 16.0 | 0.00 | 0.03 | 0.00 | 83 | 1006.7 |
| 20260830173402 | 73 | 113 | 10.0 | 19.0 | 0.00 | 0.03 | 0.00 | 85 | 1006.9 |
| 20260830172354 | 73 | 94 | 9.0 | 19.0 | 0.00 | 0.03 | 0.00 | 87 | 1006.9 |
| 20260830170151 | 71 | 136 | 9.0 | 14.0 | 0.00 | 0.03 | 0.00 | 88 | 1007.1 |
| 20260830165143 | 71 | 97 | 10.0 | 20.0 | 0.00 | 0.03 | 0.00 | 88 | 1007.3 |
| 20260830164122 | 71 | 109 | 10.0 | 21.0 | 0.00 | 0.03 | 0.00 | 88 | 1007.4 |
| 20260830163139 | 71 | 121 | 8.0 | 21.0 | 0.00 | 0.03 | 0.00 | 88 | 1007.5 |
| 20260830162130 | 71 | 115 | 11.0 | 18.0 | 0.00 | 0.03 | 0.00 | 88 | 1007.5 |
| 20260830161131 | 71 | 131 | 12.0 | 20.0 | 0.00 | 0.03 | 0.00 | 90 | 1007.4 |
| 20260830160149 | 70 | 90 | 10.0 | 23.0 | 0.00 | 0.03 | 0.00 | 91 | 1007.3 |
| 20260830155142 | 70 | 113 | 12.0 | 23.0 | 0.00 | 0.03 | 0.00 | 91 | 1007.3 |
| 20260830154139 | 69 | 119 | 12.0 | 19.0 | 0.00 | 0.03 | 0.00 | 92 | 1007.5 |
| 20260830152048 | 69 | 107 | 13.0 | 19.0 | 0.00 | 0.03 | 0.00 | 95 | 1007.6 |
| 20260830151058 | 68 | 111 | 11.0 | 18.0 | 0.00 | 0.03 | 0.00 | 97 | 1007.8 |
| 20260830150108 | 68 | 112 | 11.0 | 18.0 | 0.00 | 0.03 | 0.00 | 97 | 1007.8 |
| 20260830145122 | 67 | 103 | 11.0 | 19.0 | 0.00 | 0.03 | 0.00 | 97 | 1007.7 |
| 20260830144118 | 67 | 90 | 11.0 | 19.0 | 0.00 | 0.03 | 0.00 | 97 | 1007.8 |
| 20260830143119 | 67 | 107 | 9.0 | 17.0 | 0.00 | 0.03 | 0.00 | 97 | 1008.0 |
| 20260830140942 | 67 | 99 | 9.0 | 16.0 | 0.00 | 0.03 | 0.00 | 97 | 1008.1 |
| 20260830133648 | 66 | 101 | 9.0 | 15.0 | 0.00 | 0.03 | 0.00 | 97 | 1008.5 |
| 20260830132652 | 66 | 101 | 8.0 | 14.0 | 0.00 | 0.03 | 0.00 | 97 | 1008.4 |
| 20260830131705 | 66 | 88 | 9.0 | 15.0 | 0.00 | 0.03 | 0.00 | 96 | 1008.5 |
| 20260830125548 | 64 | 92 | 8.0 | 12.0 | 0.00 | 0.03 | 0.00 | 96 | 1008.6 |
| 20260830124525 | 64 | 83 | 7.0 | 12.0 | 0.00 | 0.03 | 0.00 | 96 | 1008.5 |
| 20260830123539 | 62 | 70 | 4.0 | 7.0 | 0.00 | 0.03 | 0.00 | 96 | 1008.6 |
| 20260830122558 | 61 | 68 | 3.0 | 6.0 | 0.00 | 0.03 | 0.00 | 95 | 1008.7 |
| 20260830121527 | 60 | 59 | 3.0 | 6.0 | 0.00 | 0.03 | 0.00 | 95 | 1008.6 |
| 20260830120535 | 60 | 56 | 2.0 | 4.0 | 0.00 | 0.03 | 0.00 | 94 | 1008.8 |
| 20260830114431 | 60 | 57 | 0.0 | 4.0 | 0.00 | 0.03 | 0.00 | 94 | 1008.9 |
| 20260830113455 | 60 | 57 | 0.0 | 0.0 | 0.00 | 0.03 | 0.00 | 93 | 1009.0 |
| 20260830112503 | 60 | 57 | 0.0 | 0.0 | 0.00 | 0.03 | 0.00 | 93 | 1009.3 |
| 20260830110338 | 60 | 57 | 0.0 | 0.0 | 0.00 | 0.03 | 0.00 | 93 | 1009.3 |
| 20260830104236 | 60 | 57 | 0.0 | 0.0 | 0.00 | 0.03 | 0.00 | 92 | 1009.3 |
| 20260830102102 | 61 | 57 | 0.0 | 0.0 | 0.00 | 0.03 | 0.00 | 90 | 1009.0 |